www.pogodaiklimat.ru

Погода и климат >> Архив погоды >> Чили >> Антофагаста


ПОГОДА в Антофагасте

  • Прогноз погоды в Антофагасте
  • Монитор погоды в Антофагасте

АРХИВ ПОГОДЫ в Антофагасте

Время (UTC), дата Ветер
(напр.,м/с)
 
Видим.   Явления Облачность Т
(С)
Тd
(С)
f
(%)
Тe
(С)
Тes
(С)
Комфортность P
(гПа)
Po
(гПа)
Тmin
(С)
Tmax
(С)
R
(мм)
R24
(мм)
S
(см)
18 12.06 Ю 5 10 км 6/3 750 м
[Sc Ci fib]
+16.1 +9.8 66 +15 +19 1016.0 999.6
21 12.06 Ю 6 10 км 8/8 660 м
[St]
+15.8 +10.0 68 +14 +15 1016.1 999.7
00 13.06 Ю 5 10 км 9/9 400 м
[Sc]
+14.6 +10.5 76 +13 +13 1016.8 1000.2 +16.9
03 13.06 Ю 4 10 км 9/9 450 м
[Sc]
+14.7 +10.6 76 +13 +13 1017.5 1000.9
06 13.06 ЮЗ 4 10 км 9/9 420 м
[Sc]
+14.5 +9.8 73 +13 +13 1017.9 1001.3
09 13.06 З 3 10 км 10/10 600 м
[Sc]
+14.6 +9.0 69 +14 +14 1018.3 1001.7
12 13.06 Ю 2 10 км 10/10 800 м
[Sc]
+14.6 +10.1 74 +15 +15 1020.0 1003.4 +14.2
15 13.06 Ю 4 10 км 8/5 800 м
[Sc Ci fib]
+16.0 +8.3 60 +15 +18 1020.9 1004.4
18 13.06 ЮЗ 8 10 км 8/5 870 м
[Sc Ci]
+16.2 +9.9 66 +15 +15 1018.9 1002.5
21 13.06 Ю 8 10 км 6/4 360 м
[Sc Ci]
+15.4 +9.6 68 +14 +14 1017.3 1000.9
00 14.06 Ю 7 10 км 8/4 360 м
[Sc Ci]
+14.0 +10.6 80 +12 +12 1017.7 1001.1 +16.9
03 14.06 Ю 7 10 км 8/8 360 м
[Sc]
+13.7 +10.9 83 +11 +11 1017.4 1000.8
06 14.06 Ю 6 10 км 10/10 300 м
[Sc]
+13.7 +10.5 81 +12 +12 1016.9 1000.3
09 14.06 Ю 6 10 км 10/10 400 м
[Sc]
+13.5 +10.0 79 +11 +11 1016.8 1000.2
12 14.06 Ю 5 10 км 8/8 480 м
[Sc]
+13.3 +9.4 77 +11 +11 1017.3 1000.7 +12.8
15 14.06 ЮЗ 3 15 км 8/3 500 м
[Sc Ci sp]
+14.7 +8.7 67 +14 +18 1018.9 1002.3
18 14.06 ЮЗ 5 15 км 6/4 540 м
[Sc Ac trans]
+15.1 +9.7 70 +14 +16 1017.9 1001.3
21 14.06 ЮЗ 4 15 км 10/10 420 м
[Sc]
+14.4 +10.1 75 +13 +13 1017.1 1000.5
00 15.06 Ю 4 15 км 10/10 600 м
[Sc]
+14.3 +9.6 73 +13 +13 1018.2 1001.6 +15.5
03 15.06 Ю 4 10 км 10/10 400 м
[Sc]
+14.2 +10.3 77 +13 +13 1019.1 1002.5
06 15.06 Ю 5 10 км 10/10 700 м
[Sc]
+14.3 +9.4 72 +13 +13 1020.3 1003.7
09 15.06 Ю 7 10 км 10/10 900 м
[Sc]
+13.9 +9.8 76 +12 +12 1019.2 1002.6
12 15.06 ЮЗ 4 10 км 9/9 400 м
[Sc]
+13.8 +9.7 76 +12 +12 1020.3 1003.7 +13.8
15 15.06 Ю 4 20 км 8/1 750 м
[Sc Ci fib]
+15.1 +9.8 71 +14 +18 1020.7 1004.1
18 15.06 Ю 7 20 км 5/1 420 м
[Sc Ci fib]
+15.4 +9.6 68 +14 +16 1019.3 1002.7
21 15.06 Ю 8 20 км 6/6 500 м
[Sc]
+14.5 +8.1 65 +12 +12 1018.7 1002.1
00 16.06 Ю 8 20 км 3/3 400 м
[Sc]
+13.1 +9.6 79 +10 +10 1018.8 1002.1 +16.0
03 16.06 Ю 6 20 км 3/3 420 м
[Sc]
+12.6 +9.8 83 +10 +10 1019.0 1002.3
06 16.06 Ю 4 20 км 9/9 400 м
[Sc]
+12.8 +9.5 80 +11 +11 1018.7 1002.0
09 16.06 Ю 1 15 км 8/8 420 м
[Sc]
+11.0 +7.3 78 +12 +12 1017.7 1001.0
12 16.06 ЮВ 2 15 км 3/3 500 м
[Sc]
+11.2 +7.1 76 +10 +10 1017.9 1001.2 +10.3
15 16.06 Ю 4 15 км 3/3 450 м
[Sc]
+13.4 +6.1 61 +12 +16 1017.6 1001.0
18 16.06 ЮЗ 7 15 км 4/3 360 м
[Sc Ci fib]
+14.5 +9.1 70 +13 +14 1015.5 998.9
21 16.06 Ю 6 15 км 1/1 450 м
[Sc]
+13.8 +8.7 71 +12 +12 1014.9 998.3
00 17.06 Ю 3 10 км 8/8 450 м
[Sc]
+12.8 +8.3 74 +11 +11 1016.4 999.8 +14.8
03 17.06 ЮЗ 3 20 км 9/9 480 м
[Sc]
+13.0 +8.5 74 +12 +12 1018.5 1001.8
06 17.06 ЮЗ 4 20 км 10/10 570 м
[Sc]
+13.1 +7.6 69 +11 +11 1018.5 1001.9
09 17.06 В 4 20 км 5/5 540 м
[Sc]
+10.6 +6.0 73 +8 +8 1017.4 1000.7
12 17.06 Ю 5 20 км 1/1 420 м
[Sc]
+10.2 +5.0 70 +7 +8 1018.3 1001.5 +8.9
15 17.06 Ю 7 10 км 3/3 330 м
[Sc]
+13.9 +8.8 71 +12 +14 1018.9 1002.3
18 17.06 Ю 9 10 км ясно +14.8 +8.3 65 +12 +13 1017.6 1001.0
21 17.06 Ю 9 10 км ясно +14.3 +8.3 67 +12 +12 1016.2 999.6
00 18.06 Ю 6 10 км ясно +12.6 +9.3 80 +10 +10 1015.7 999.1 +15.5
03 18.06 ЮЗ 8 10 км 1/1 500 м
[Sc]
+12.3 +9.3 82 +9 +9 1016.0 999.3
06 18.06 ЮЗ 8 10 км 6/6 240 м
[Sc]
+12.3 +10.0 86 +9 +9 1014.6 998.0
09 18.06 Ю 5 10 км 8/8 210 м
[Sc]
+12.0 +9.9 87 +10 +10 1013.9 997.3
12 18.06 СВ 2 10 км 4/4 240 м
[Sc]
+11.6 +8.5 81 +11 +11 1014.9 998.2 +9.7
15 18.06 Ю 3 15 км 1/1 360 м
[Sc]
+14.2 +9.3 72 +13 +19 1014.8 998.2
18 18.06 ЮЗ 5 25 км ясно +14.5 +8.9 69 +13 +18 1013.1 996.7
21 18.06 Ю 4 20 км ясно +14.0 +9.9 76 +13 +13 1012.2 995.8
00 19.06 ЮВ 2 15 км ясно +12.4 +8.9 79 +12 +12 1012.2 995.6 +16.2
03 19.06 С 2 10 км ясно +11.1 +8.7 85 +10 +10 1012.0 995.3
06 19.06 С 5 10 км ясно +10.1 +8.4 89 +7 +7 1012.6 995.9
09 19.06 С 4 8000 м мгла ясно +11.7 +9.3 85 +9 +9 1011.2 994.6
12 19.06 СВ 4 10 км ясно +11.9 +8.6 80 +10 +10 1012.2 995.6 +8.9
15 19.06 С 5 10 км 3/3 480 м
[Sc]
+16.3 +9.6 65 +15 +18 1012.8 996.4

 

Местоположение метеостанции Антофагаста (Чили): широта -23.43 долгота -70.45 высота над уровнем моря 140 м.

В архиве по умолчанию представлена погода в Антофагасте за последнюю неделю. Архивные данные за месяц целиком и за предыдущие месяцы, начиная с января 2011 года, Вы можете получить, выбрав интересующий диапазон дат из раскрывающегося списка и нажав кнопку "Ввод!".


*Определитесь, кто Вы:
робот инопланетянин человек

Внимание! Время в таблицах - всемирное. Для получения местного времени необходимо прибавить поправку, которая равна -4 ч.

Смотрите также архив погоды в соседних городах и на ближайших метеорологических станциях:

Погода в Антофагаста университете (Чили) (28 км)
Погода в Каламе (Чили) (192 км)
Погода в Тальтале (Чили) (220 км)
Погода в Токонао (Чили) (251 км)
Погода в Икике (Чили) (324 км)
Погода в Икика университете (Чили) (353 км)
Погода в Кальдере (Чили) (426 км)
Погода в Копьяпо университете (Чили) (437 км)
Погода в Ла-Кьяке (Аргентина) (519 км)
Погода в Сальте (Аргентина) (529 км)

Пояснения к столбцам:

Ветер - указаны скорость ветра в м/с - средняя за 10 мин, порывы в срок и между сроками (в фигурных скобках) и направление, откуда дует ветер: С - северный, СВ - северо-восточный, В - восточный, ЮВ - юго-восточный, Ю - южный, ЮЗ - юго-западный, З - западный, СЗ - северо-западный.
Видимость - горизонтальная дальность видимости в метрах или километрах. При видимости от 1 до 10 км при отсутствии осадков обычно наблюдается дымка, при ухудшении видимости до 1 км и менее - туман. В сухую погоду видимость может ухудшаться дымом, пылью или мглою.
Явления - указаны атмосферные явления, наблюдавшиеся в срок или в последний час перед сроком; фигурными скобками обозначены явления, наблюдавшиеся между сроками (за 1-3 часа до срока); квадратными скобками обозначены град или гололедные отложения с указанием их диаметра в мм.
Облачность - указаны через наклонную черту общая и нижняя облачность в баллах и высота нижней границы облаков в метрах; квадратными скобками обозначены формы облаков: Ci - перистые, Cs - перисто-слоистые, Cc - перисто-кучевые, Ac - высококучевые, As - высокослоистые, Sc - слоисто-кучевые, Ns - слоисто-дождевые, Cu - кучевые, Cb - кучево-дождевые. Подробнее классификацию облаков см. в Атласе облаков (PDF).
T - Температура воздуха - температура, измеренная на высоте 2 м над землей.
Td - Температура точки росы - температура, при понижении до которой содержащийся в воздухе водяной пар достигнет насыщения.
f - Относительная влажность воздуха - влажноcть воздуха, измеренная на высоте 2 м над землей.
Te - Эффективная температура - температура, которую ощущает одетый по сезону человек в тени. Характеристика душности погоды. При расчете учитывается влияние влажности воздуха и скорости ветра на теплоощущения человека.
Tes - Эффективная температура на солнце - температура, которую ощущает человек, с поправкой на солнечный нагрев. Характеристика знойности погоды. Зависит от высоты солнца над горизонтом, облачности и скорости ветра. Ночью, в пасмурную погоду, а также при ветре 12 м/с и более поправка равна нулю.
P - Атмосферное давление - приведенное к уровню моря атмосферное давление.
Po - Атмосферное давление - измеренное на уровне метеостанции атмосферное давление.
Tmin - Минимальная температура - минимум температуры воздуха на высоте 2 м над землей.
Tmax - Максимальная температура - максимум температуры воздуха на высоте 2 м над землей.
R - Количество осадков - Количество выпавших осадков за период времени, мм. При наведении курсора мыши на число - период времени, за который выпало указанное количество осадков.
R24 - Количество осадков - Количество выпавших осадков за 24 часа, мм.
S - Снежный покров - Высота снежного покрова, см. При наведении курсора мыши на число - состояние снежного покрова и степень покрытия местности в баллах.